CAPE
166 359 278 153 202 170 276 291 232 217 296 326 243 172 158 374 432 211 536 471 942 1386 1924 2221 2514 2148 1735 1631 1590 1701 1642 1448 1375 1655 1592 1149 1380 1068 1106 1131 1200 1389 1421 1383 1212 1274 1481 1375 1566
225 492 183 179 124 114 281 197 197 184 227 258 230 292 303 254 969 822 498 915 1134 1583 1954 1978 2720 2449 1932 1847 1756 1529 1451 1490 1483 1385 1331 1299 1414 1392 1264 1281 1315 1427 1312 1183 1356 1291 1441 1463 1492
424 752 255 209 178 156 192 253 160 220 252 346 115 139 270 748 721 567 580 1099 1340 1654 1893 1900 2853 2384 1844 1868 2148 2119 1669 1450 1505 1573 1469 1499 1731 1838 1590 1433 1371 1312 1067 1124 1266 1490 1467 1253 1275
895 114 292 215 270 316 247 239 299 285 203 129 81 127 424 727 620 709 808 1256 1218 1595 1818 2181 2330 1923 1807 1716 2035 1841 1668 1984 1646 1532 1416 1778 1778 1776 1612 1333 1381 1346 1220 1440 1187 1170 1020 937 1102
475 391 229 230 236 296 255 205 303 215 111 67 37 189 383 484 620 615 1095 1105 1008 1278 1521 1862 2588 2388 2153 1564 1562 1719 1191 1469 1454 1444 1270 1515 1769 1762 1721 1217 1007 943 919 843 859 889 862 916 845
79 174 166 124 203 145 131 163 168 141 133 92 65 128 262 623 606 722 825 812 826 964 1379 1717 2319 2427 2011 1622 1520 1560 1648 1668 1456 1491 1456 1806 1864 1727 1472 1779 1436 1307 1243 1261 1240 1221 1272 1357 956
44 68 111 156 303 51 50 95 147 103 92 67 69 135 284 520 538 505 468 658 722 1082 1311 1472 1632 1642 1655 1466 1521 1431 1990 1486 1551 1585 1635 1811 1638 1720 1827 1703 1539 1509 1425 1363 1356 1359 1340 1415 1244
22 86 69 236 209 76 52 58 78 38 90 53 46 167 190 286 328 256 381 558 779 1120 1093 1178 1271 1363 1380 1210 1915 1661 1793 1570 1428 1621 1525 2030 1326 1481 1728 2311 1552 1561 1498 1498 1432 1327 1349 1286 1239
145 24 116 267 236 53 30 35 16 20 20 37 28 62 71 237 231 282 377 600 756 851 883 1047 1109 1219 1374 1407 1361 1833 1527 1553 1235 1521 1265 1449 1178 1368 1782 1679 1773 1508 1394 1460 1400 1475 1545 1440 966
35 96 256 268 311 54 26 24 4 25 0 11 21 83 157 158 230 222 226 292 357 454 646 790 796 900 1015 1020 1097 1186 1085 1149 1072 1295 1292 1300 1267 1580 1429 1561 1538 1265 1190 1154 1409 1972 1834 1587 505
83 143 204 406 476 246 20 61 40 0 18 2 10 119 122 173 177 156 150 178 221 277 404 601 606 672 1001 1009 992 1017 1029 1214 1221 1312 884 689 1096 1189 1411 1168 1170 1017 1442 1517 1789 1886 2245 1396 678
322 302 421 736 503 333 43 26 37 29 11 8 14 89 156 210 135 107 116 137 89 134 233 518 534 559 827 846 863 939 951 1176 944 1161 906 535 1176 1275 1262 920 746 752 1021 1208 1099 1204 1515 1420 1015
157 312 251 243 254 185 137 32 17 9 10 12 15 107 193 197 179 125 108 111 93 40 76 380 476 452 571 508 678 826 909 798 851 1109 886 386 880 1095 789 448 481 714 831 814 766 747 808 1015 886
34 122 64 89 264 182 129 101 43 20 41 0 27 117 195 222 229 211 180 152 135 3 0 86 262 201 358 291 416 509 656 649 613 848 1103 454 297 589 518 509 629 711 673 762 678 284 517 722 768
277 29 51 46 246 97 100 36 28 47 43 17 0 105 141 138 179 196 184 206 194 10 0 1 87 88 85 179 187 379 273 370 724 677 864 577 288 292 465 504 518 591 671 723 778 522 463 517 733
6 20 37 30 133 89 109 75 44 29 57 54 36 61 130 56 62 127 126 172 185 151 0 0 80 50 3 0 0 161 280 179 290 468 159 38 187 358 414 342 549 682 571 686 641 653 491 499 444
0 3 7 19 77 49 90 77 79 37 55 38 54 51 107 125 37 5 43 76 124 192 39 6 27 50 39 32 47 99 86 94 71 92 1 0 229 376 463 476 601 647 435 432 577 618 569 475 245
17 10 4 6 13 23 24 30 68 40 70 48 61 61 98 264 206 81 49 73 93 111 126 149 84 57 36 72 71 131 28 67 113 120 101 68 209 266 474 523 589 541 423 621 737 739 599 495 327
38 7 9 21 32 40 95 72 90 106 83 108 80 69 122 209 373 269 183 130 152 196 276 315 300 176 59 130 146 204 287 22 121 259 287 183 122 123 120 330 526 619 547 700 770 760 596 525 348
57 44 59 17 56 48 95 116 49 116 164 177 127 107 302 360 442 504 340 293 307 283 338 380 391 332 214 123 148 189 294 300 178 233 338 452 315 143 151 174 376 721 760 810 696 708 543 447 175
69 70 78 103 139 133 203 138 86 199 337 282 224 212 148 99 257 600 564 499 436 470 456 504 504 567 587 438 319 243 279 352 395 222 349 432 507 480 192 199 278 626 847 940 742 669 565 335 177
82 84 78 143 166 140 209 30 5 86 130 231 408 407 343 305 229 394 683 664 635 610 614 564 549 620 667 696 620 519 533 476 484 323 352 329 315 469 346 261 347 499 449 866 838 749 674 520 332
31 43 33 178 189 135 95 131 109 24 98 178 219 307 394 476 502 497 439 546 662 664 761 730 595 579 625 682 740 711 591 549 490 338 277 275 290 289 266 312 470 473 366 397 771 658 692 614 483
41 16 29 218 113 31 0 130 63 64 103 157 222 352 473 523 529 600 635 544 576 853 866 741 778 640 584 626 695 730 517 516 438 305 149 100 161 295 452 653 487 524 389 339 464 519 463 505 374
10 0 0 0 0 0 0 122 113 76 66 150 260 408 362 335 586 617 686 764 868 850 825 932 854 820 660 583 626 676 605 507 462 327 337 299 309 449 688 737 728 669 596 519 397 309 214 212 129
23 0 0 0 0 0 0 4 26 66 135 175 213 375 46 170 366 461 633 757 824 893 927 967 919 780 711 730 706 658 552 630 338 151 201 310 545 513 828 701 491 623 479 366 320 323 222 126 57
1 0 0 0 0 0 0 3 4 24 83 133 243 255 50 234 544 759 878 996 946 866 881 904 873 805 695 658 645 650 830 811 363 207 70 282 230 399 608 183 318 257 340 327 342 160 111 26 99
23 0 0 0 0 0 0 0 0 11 118 162 206 191 15 317 783 876 715 598 588 756 835 914 964 1000 1047 1070 1068 1092 1071 793 403 236 125 126 172 397 429 290 157 196 176 170 160 127 97 109 56
0 0 0 0 0 0 0 0 0 0 4 122 93 31 50 675 737 671 690 804 894 930 985 1008 980 1018 1072 1148 1258 1281 1183 1036 815 710 509 324 226 398 349 180 121 132 101 108 58 63 59 53 44
0 0 0 0 0 0 0 0 0 0 0 0 55 0 96 776 763 785 890 1033 1128 1137 1074 1196 1416 1385 1293 928 357 506 641 937 932 921 675 410 376 307 439 116 65 39 89 143 65 60 53 53 71
CIN
-290 -247 -258 -56 -100 -54 -33 -37 -41 -51 -81 -102 -149 -193 -119 -183 -138 -108 -260 -264 -139 -42 -3 -4 -0 -0 -0 -0 -0 -0 -0 -0 -0 -0 -0 -1 -0 -0 -0 -1 -0 -0 -0 -0 -3 -4 -4 -10 -5
-119 -180 -195 -85 -42 -12 -24 -93 -51 -46 -83 -115 -138 -68 -105 -162 -166 -192 -228 -114 -89 -24 -2 -4 -0 -0 -0 -0 -0 -0 -0 -0 -0 -0 -0 -0 -0 -0 -0 -0 -1 -0 -0 -0 -0 -0 -3 -0 -0
-176 -209 -222 -76 -79 -23 -28 -34 -23 -141 -95 -108 -131 -64 -160 -156 -179 -217 -208 -78 -49 -6 -1 -3 -0 -0 -0 -0 -0 -0 -0 -0 -0 -0 -0 -0 -0 -0 -0 -0 -0 -0 -3 -3 -0 -0 -0 -1 -1
-147 -305 -194 -89 -70 -69 -31 -30 -26 -20 -27 -83 -187 -219 -211 -159 -200 -180 -146 -58 -53 -4 -1 -0 -0 -0 -0 -0 -0 -0 -0 -0 -0 -0 -0 -0 -0 -0 -0 -0 -0 -0 -0 -0 -0 -0 -6 -13 -10
-203 -176 -84 -76 -79 -54 -57 -50 -37 -33 -37 -92 -224 -213 -185 -185 -192 -197 -90 -83 -83 -25 -4 -1 -0 -0 -0 -0 -0 -0 -0 -0 -0 -0 -0 -0 -0 -0 -0 -0 -0 -0 -0 -3 -6 -3 -4 -4 -16
-40 -264 -99 -39 -77 -29 -30 -49 -18 -99 -207 -245 -253 -224 -195 -159 -181 -124 -87 -91 -77 -58 -11 -4 -0 -0 -0 -0 -0 -0 -0 -0 -0 -0 -0 -0 -0 -0 -0 -0 -0 -0 -0 -0 -0 -0 -0 -0 -6
-43 -51 -134 -126 -59 -33 -37 -56 -17 -157 -194 -223 -102 -235 -225 -157 -163 -170 -157 -82 -64 -17 -2 -2 -4 -0 -0 -0 -0 -0 -0 -0 -0 -0 -0 -0 -0 -0 -0 -0 -1 -0 -0 -0 -0 -0 -0 -0 -0
-20 -255 -110 -79 -61 -32 -22 -47 -32 -142 -148 -225 -74 -280 -236 -237 -212 -233 -152 -65 -13 -0 -0 -2 -2 -1 -0 -2 -0 -0 -0 -0 -0 -0 -0 -0 -0 -0 -0 -0 -7 -0 -0 -0 -0 -0 -0 -0 -3
-315 -98 -76 -53 -39 -15 -35 -19 -22 -163 -173 -83 -157 -113 -304 -274 -247 -202 -120 -32 -5 -0 -3 -2 -1 -0 -0 -0 -0 -0 -0 -0 -0 -0 -0 -0 -2 -5 -2 -2 -1 -0 -0 -0 -0 -0 -11 -13 -17
-228 -32 -73 -102 -67 -87 -10 -3 -3 -113 -0 -144 -322 -345 -309 -314 -253 -234 -184 -125 -94 -48 -20 -13 -6 -1 -0 -3 -2 -1 -1 -1 -0 -2 -2 -4 -7 -0 -0 -3 -0 -3 -4 -4 -0 -0 -3 -9 -67
-113 -32 -81 -94 -77 -61 -7 -6 -21 -0 -35 -6 -315 -318 -314 -268 -231 -247 -239 -240 -193 -116 -49 -22 -17 -13 -2 -7 -12 -13 -7 -0 -0 -1 -18 -47 -33 -22 -8 -18 -14 -24 -13 -17 -3 -2 -3 -26 -32
-142 -142 -112 -96 -99 -74 -120 -12 -11 -6 -39 -36 -65 -324 -275 -218 -214 -224 -227 -227 -263 -202 -117 -54 -40 -29 -6 -4 -15 -18 -17 -1 -10 -8 -33 -69 -27 -30 -37 -56 -68 -81 -64 -44 -56 -62 -41 -41 -40
-178 -120 -129 -77 -68 -53 -58 -74 -17 -20 -4 -16 -158 -285 -235 -214 -220 -212 -206 -205 -193 -323 -254 -117 -83 -62 -34 -43 -37 -31 -31 -39 -38 -9 -30 -97 -60 -55 -79 -117 -113 -91 -87 -89 -95 -121 -134 -83 -67
-25 -164 -52 -165 -116 -84 -92 -104 -64 -19 -19 -0 -130 -308 -259 -211 -198 -174 -162 -121 -123 -94 -0 -215 -133 -129 -91 -103 -88 -83 -66 -73 -64 -40 -39 -112 -123 -90 -102 -95 -65 -52 -61 -47 -66 -138 -145 -130 -76
-125 -26 -61 -109 -125 -67 -17 -118 -25 -29 -62 -23 -0 -13 -299 -268 -214 -209 -183 -140 -105 -104 -0 -23 -214 -188 -188 -151 -143 -112 -132 -121 -83 -83 -57 -94 -152 -49 -39 -43 -25 -22 -26 -20 -43 -22 -44 -102 -69
-39 -84 -72 -85 -64 -116 -102 -155 -26 -61 -61 -58 -52 -22 -40 -61 -281 -253 -226 -178 -137 -94 -0 -0 -215 -230 -47 -0 -0 -165 -135 -159 -151 -131 -160 -160 -121 -42 -37 -38 -36 -33 -44 -38 -25 -33 -77 -90 -83
-0 -22 -97 -65 -102 -123 -88 -80 -59 -18 -101 -65 -36 -62 -32 -57 -74 -75 -227 -230 -191 -117 -60 -15 -279 -266 -276 -268 -256 -202 -206 -194 -239 -195 -6 -0 -37 -27 -28 -37 -39 -35 -40 -177 -47 -19 -12 -17 -42
-117 -54 -7 -8 -20 -73 -127 -161 -162 -87 -57 -130 -109 -113 -68 -19 -34 -54 -62 -51 -41 -41 -22 -22 -136 -282 -321 -262 -235 -183 -236 -264 -227 -198 -175 -178 -38 -33 -25 -35 -54 -46 -183 -42 -24 -19 -13 -30 -26
-79 -114 -82 -105 -114 -17 -39 -51 -132 -210 -85 -67 -179 -186 -107 -62 -14 -32 -42 -22 -30 -27 -17 -14 -16 -174 -257 -236 -240 -189 -159 -123 -204 -136 -97 -111 -128 -132 -255 -55 -38 -126 -35 -39 -21 -20 -14 -28 -57
-44 -55 -59 -134 -155 -57 -35 -53 -125 -156 -100 -91 -115 -286 -210 -133 -82 -50 -34 -10 -15 -23 -25 -23 -10 -25 -57 -134 -278 -218 -118 -130 -135 -67 -69 -66 -73 -103 -89 -117 -196 -134 -99 -43 -23 -12 -18 -44 -55
-65 -67 -90 -81 -140 -65 -40 -58 -61 -318 -288 -226 -100 -160 -50 -65 -69 -64 -42 -36 -16 -13 -6 -8 -10 -7 -7 -13 -31 -150 -207 -141 -138 -138 -95 -79 -42 -45 -72 -85 -235 -156 -54 -34 -40 -33 -28 -36 -20
-87 -91 -168 -120 -143 -69 -79 -33 -70 -29 -43 -128 -211 -186 -202 -175 -71 -56 -71 -69 -61 -36 -25 -23 -22 -12 -5 -11 -6 -19 -31 -49 -153 -146 -91 -80 -75 -58 -57 -74 -227 -186 -162 -42 -37 -33 -22 -22 -19
-30 -49 -266 -140 -125 -80 -110 -94 -52 -167 -44 -49 -60 -69 -98 -146 -150 -153 -146 -63 -68 -53 -26 -30 -45 -40 -22 -11 -5 -8 -11 -25 -16 -127 -128 -81 -60 -41 -272 -165 -239 -211 -205 -112 -45 -24 -20 -16 -11
-78 -84 -176 -124 -149 -75 -0 -124 -61 -83 -82 -55 -56 -44 -24 -29 -57 -62 -55 -65 -57 -50 -46 -45 -35 -47 -37 -12 -8 -3 -13 -10 -20 -32 -40 -42 -87 -170 -161 -152 -173 -183 -98 -85 -83 -46 -50 -27 -42
-36 -0 -0 -0 -0 -0 -0 -178 -79 -129 -106 -80 -49 -65 -76 -112 -104 -122 -90 -57 -25 -31 -33 -30 -30 -18 -18 -14 -7 -2 -5 -0 -1 -1 -2 -12 -163 -128 -99 -102 -104 -94 -85 -58 -27 -34 -32 -20 -57
-31 -3 -0 -0 -0 -0 -0 -26 -88 -99 -97 -77 -91 -82 -270 -195 -179 -185 -124 -80 -66 -47 -40 -49 -27 -32 -16 -10 -5 -2 -2 -0 -0 -0 -0 -0 -116 -102 -51 -88 -78 -54 -70 -59 -63 -27 -6 -0 -41
-0 -0 -0 -0 -0 -0 -0 -79 -15 -187 -139 -111 -127 -142 -267 -170 -138 -121 -74 -46 -53 -101 -96 -71 -71 -73 -55 -31 -20 -17 -5 -3 -3 -0 -59 -3 -156 -106 -28 -165 -54 -24 -38 -35 -18 -4 -12 -4 -45
-12 -0 -0 -0 -0 -0 -0 -0 -0 -146 -149 -147 -160 -166 -282 -351 -160 -124 -173 -280 -344 -351 -314 -338 -256 -175 -134 -104 -80 -49 -18 -9 -7 -6 -27 -25 -107 -88 -41 -25 -101 -15 -7 -18 -34 -20 -26 -9 -34
-0 -0 -0 -0 -0 -0 -0 -0 -0 -0 -29 -125 -209 -250 -537 -178 -214 -234 -236 -289 -274 -249 -211 -149 -119 -91 -49 -54 -46 -31 -31 -28 -32 -35 -47 -57 -87 -45 -38 -34 -51 -12 -18 -2 -31 -2 -0 -2 -13
-0 -0 -0 -0 -0 -0 -0 -0 -0 -0 -0 -8 -149 -0 -423 -199 -228 -249 -292 -315 -247 -207 -191 -149 -78 -71 -75 -72 -178 -181 -135 -77 -63 -55 -46 -53 -21 -29 -1 -10 -27 -7 -19 -0 -27 -11 -0 -6 -4
Wind_Speed
20 17 12 14 8 15 12 10 11 8 9 10 8 7 7 9 6 6 1 2 8 8 8 11 16 16 14 10 11 13 15 15 13 13 15 17 20 22 22 23 24 22 23 23 22 19 13 11 12
11 17 15 16 14 13 18 14 10 11 12 8 7 7 13 11 10 6 5 5 9 8 6 9 17 15 12 10 13 16 18 16 14 15 17 18 21 21 22 22 26 26 24 22 21 18 17 16 13
14 20 20 15 17 18 19 14 13 12 11 12 10 13 12 10 9 5 6 8 7 4 5 10 18 15 13 13 15 18 19 18 17 18 17 21 22 23 23 20 23 25 23 20 19 18 20 25 18
16 23 20 22 20 23 17 13 15 14 18 17 nan 12 12 8 6 5 12 9 7 5 6 14 17 15 12 14 15 13 15 16 17 19 20 21 23 21 20 20 21 23 23 23 24 22 22 25 24
10 9 17 20 21 23 18 8 13 12 10 nan nan 13 11 12 2 10 10 7 8 8 8 10 16 14 13 12 12 14 15 16 18 20 21 22 25 24 23 22 20 21 23 24 24 23 23 22 25
nan 11 14 19 23 22 15 13 11 11 6 nan nan 8 12 7 4 7 7 4 9 10 7 7 16 16 14 13 14 15 16 16 19 21 21 22 24 23 22 21 20 20 20 21 22 23 25 25 28
nan nan 17 16 20 nan nan nan 9 5 nan nan nan 6 9 9 4 6 4 6 7 7 5 5 7 15 18 16 15 16 16 17 19 19 20 21 22 22 21 21 19 21 19 19 21 21 23 26 27
nan nan nan 17 16 nan nan nan nan nan nan nan nan 5 7 7 8 6 6 4 4 3 3 5 5 7 8 10 16 15 15 17 17 19 20 20 22 22 20 20 18 16 17 17 18 18 20 26 26
5 nan 10 18 16 nan nan nan nan nan nan nan nan nan nan 15 9 9 5 0 4 4 6 6 6 7 8 6 9 14 16 16 17 17 20 18 12 14 16 15 18 16 17 17 18 18 18 15 21
nan nan 13 11 18 nan nan nan nan nan nan nan nan nan 21 19 15 13 9 12 12 11 9 8 8 9 8 7 8 6 8 6 7 7 10 11 13 12 14 15 18 17 16 16 19 19 16 14 13
nan 9 11 12 12 17 nan nan nan nan nan nan nan 12 14 15 12 12 13 12 12 11 10 8 7 6 6 7 5 4 4 4 4 5 7 9 10 10 11 12 9 5 12 6 9 11 11 12 16
4 12 5 24 17 13 nan nan nan nan nan nan nan nan 12 11 10 11 9 9 nan 10 10 10 8 7 6 2 2 2 2 2 3 3 6 7 7 9 8 8 11 5 4 6 6 8 10 12 13
2 5 6 8 14 3 7 nan nan nan nan nan nan 13 11 10 12 12 9 6 nan nan nan 13 11 9 7 5 5 5 6 5 4 3 4 7 8 7 5 5 7 7 2 4 3 5 6 11 11
nan 6 nan nan 5 8 10 13 nan nan nan nan nan 12 12 12 14 13 10 9 8 nan nan nan 13 12 11 10 9 9 8 9 9 9 9 10 11 11 10 4 4 3 2 2 2 1 2 6 10
3 nan nan nan 6 nan 8 nan nan nan nan nan nan 12 14 15 14 17 16 15 12 nan nan nan nan nan nan 12 8 7 8 10 11 11 12 14 16 14 13 8 4 5 5 3 2 5 4 4 7
nan nan nan nan 13 nan 9 nan nan nan nan nan nan nan 17 nan nan 21 19 19 16 14 nan nan nan nan nan nan nan 8 9 11 11 12 14 nan 16 18 15 11 8 10 8 7 8 11 6 7 9
nan nan nan nan nan nan nan nan nan nan nan nan nan nan 18 19 nan nan nan nan 18 17 nan nan nan nan nan nan nan nan nan nan nan nan nan nan 16 18 17 13 11 13 14 11 11 13 13 13 10
nan nan nan nan nan nan nan nan nan nan nan nan nan nan nan 17 21 nan nan nan nan 17 15 16 nan nan nan nan nan 13 nan nan 13 14 15 nan 17 19 19 16 14 17 18 15 15 18 18 19 17
nan nan nan nan nan nan nan nan nan 18 nan 14 nan nan 15 20 18 16 11 6 9 15 18 23 20 17 nan 15 20 14 16 nan 14 15 17 17 19 19 21 18 18 21 21 19 19 23 23 21 22
nan nan nan nan nan nan nan 24 nan 20 21 20 21 17 19 18 18 17 14 16 18 21 24 21 24 24 20 16 17 17 16 18 20 18 15 14 17 19 21 21 20 23 23 25 27 28 27 23 24
nan nan nan 8 8 10 12 26 nan 16 14 12 12 10 12 nan 19 14 16 20 24 28 30 28 29 30 28 25 20 17 14 15 21 23 21 17 18 16 23 26 26 26 27 26 28 29 30 28 28
nan nan nan 8 3 7 8 nan nan nan 12 10 9 10 15 17 14 12 15 16 21 25 25 30 31 32 27 27 25 29 26 22 25 26 24 24 25 26 31 25 27 28 30 31 30 31 31 37 33
nan nan nan 7 10 9 nan 9 10 nan nan 12 4 8 13 16 14 14 14 16 14 15 22 26 29 31 32 32 33 32 30 29 30 30 29 29 29 28 26 25 29 27 29 29 31 32 32 33 32
nan nan nan 6 5 nan nan 7 nan nan 8 9 6 2 8 9 10 10 8 12 14 16 20 23 27 30 33 35 37 39 36 32 33 33 30 29 33 35 34 32 33 24 26 27 30 31 27 30 33
nan nan nan nan nan nan nan 8 3 nan nan 9 9 7 6 1 3 8 9 11 13 15 18 21 25 30 30 32 35 38 35 35 34 33 34 34 37 42 46 45 36 31 19 26 29 35 37 33 33
nan nan nan nan nan nan nan nan nan nan 4 8 6 3 nan 9 8 16 12 14 16 20 23 26 29 29 34 35 37 37 39 36 35 39 38 38 41 45 47 48 45 33 29 28 32 33 40 45 nan
nan nan nan nan nan nan nan nan nan nan nan 16 10 5 nan 8 8 14 16 17 17 21 28 31 33 33 35 39 41 42 43 39 38 40 nan 44 47 50 50 51 48 43 47 37 34 37 46 nan nan
nan nan nan nan nan nan nan nan nan nan 14 20 18 19 nan 21 18 23 23 24 23 26 31 33 33 33 34 38 40 40 43 41 39 38 38 40 47 54 51 43 54 38 45 32 33 42 nan 39 nan
nan nan nan nan nan nan nan nan nan nan nan 21 nan nan nan 28 27 29 30 29 29 31 33 33 33 34 34 36 39 40 41 41 39 37 35 38 45 48 46 48 46 42 37 38 nan nan nan nan nan
nan nan nan nan nan nan nan nan nan nan nan nan nan nan nan 32 33 32 33 35 35 35 38 40 38 39 39 39 40 43 45 47 42 41 40 38 36 31 37 48 nan nan nan 34 nan nan nan nan nan
Wind_Direction
74 53 61 55 17 28 42 46 57 90 110 113 10 119 134 165 124 86 146 44 333 353 7 347 346 350 349 350 1 9 15 6 8 13 6 6 11 15 19 29 30 35 37 40 44 52 60 54 73
57 43 49 50 34 19 50 84 101 93 131 187 179 185 173 165 174 254 262 335 331 351 0 360 351 358 357 358 11 19 23 21 23 16 15 13 15 19 21 26 31 38 41 39 37 38 45 40 66
48 58 57 55 42 32 38 55 67 103 124 153 173 175 163 169 216 282 261 309 326 349 345 4 358 6 2 8 20 26 26 28 27 22 22 20 28 27 23 22 29 34 42 37 31 36 36 42 66
61 67 65 53 50 49 48 45 71 91 117 145 nan 184 187 182 291 286 295 319 314 345 345 2 1 2 5 15 23 28 35 31 25 23 24 32 31 27 23 23 26 28 29 32 30 29 32 41 45
67 60 66 67 72 60 56 50 88 97 113 nan nan 137 148 141 255 314 311 299 336 347 353 0 2 5 10 17 27 34 34 33 27 25 29 35 39 36 29 31 29 25 28 29 31 31 32 39 39
nan 66 85 72 87 79 65 43 83 111 104 nan nan 137 136 121 4 3 6 318 321 343 354 9 0 6 9 17 31 39 43 30 28 27 31 32 39 38 34 36 29 28 32 31 33 36 36 39 37
nan nan 75 89 95 nan nan nan 60 96 nan nan nan 147 121 91 44 335 325 312 320 328 333 29 20 10 9 23 35 42 40 35 32 25 28 26 33 36 35 39 34 36 36 38 36 38 41 37 39
nan nan nan 80 88 nan nan nan nan nan nan nan nan 22 59 70 345 305 285 279 317 301 332 29 32 25 36 47 36 42 39 36 32 28 26 34 29 33 41 36 42 40 41 38 41 44 43 34 25
49 nan 114 91 102 nan nan nan nan nan nan nan nan nan nan 321 319 294 285 166 42 21 13 16 41 45 39 46 56 46 41 35 30 27 22 29 37 39 37 33 44 42 45 46 48 49 51 34 22
nan nan 83 76 101 nan nan nan nan nan nan nan nan nan 302 319 335 338 5 19 24 27 40 38 39 45 50 56 65 58 76 64 66 56 48 30 32 37 32 30 38 46 49 47 45 47 50 35 14
nan 16 75 70 83 83 nan nan nan nan nan nan nan 330 324 336 3 4 8 29 30 31 48 62 65 61 39 48 75 86 88 70 57 41 30 30 28 42 52 41 27 67 61 48 39 42 29 18 11
61 68 49 73 72 63 nan nan nan nan nan nan nan nan 329 348 22 34 29 21 nan 34 34 29 28 26 32 63 43 25 22 39 63 29 2 356 4 27 45 41 37 62 55 76 46 26 23 25 11
305 67 3 91 75 77 37 nan nan nan nan nan nan 322 345 17 29 51 52 39 nan nan nan 20 13 16 20 14 343 338 348 339 336 321 330 328 338 355 20 48 27 52 166 104 47 353 21 10 22
nan 25 nan nan 57 51 48 84 nan nan nan nan nan 359 355 14 39 49 61 62 38 nan nan nan 12 13 13 15 357 348 329 322 311 311 320 323 318 325 332 356 16 12 4 357 334 257 28 23 347
154 nan nan nan 6 nan 349 nan nan nan nan nan nan 32 32 31 33 41 38 39 25 nan nan nan nan nan nan 11 347 331 323 324 318 317 314 319 316 315 314 316 334 332 323 315 251 259 293 339 326
nan nan nan nan 95 nan 72 nan nan nan nan nan nan nan 42 nan nan 47 36 39 25 13 nan nan nan nan nan nan nan 323 312 312 311 307 308 nan 317 312 308 306 307 294 292 286 270 261 263 295 310
nan nan nan nan nan nan nan nan nan nan nan nan nan nan 74 64 nan nan nan nan 34 27 nan nan nan nan nan nan nan nan nan nan nan nan nan nan 314 309 304 297 292 287 281 276 279 267 263 267 270
nan nan nan nan nan nan nan nan nan nan nan nan nan nan nan 65 73 nan nan nan nan 7 358 357 nan nan nan nan nan 330 nan nan 326 323 318 nan 315 315 305 298 288 276 272 269 265 270 266 261 265
nan nan nan nan nan nan nan nan nan 61 nan 75 nan nan 64 67 72 76 68 23 9 10 10 10 11 358 nan 349 350 336 341 nan 338 330 331 319 310 310 307 301 293 283 280 281 278 262 268 270 267
nan nan nan nan nan nan nan 94 nan 72 80 68 67 63 61 63 62 69 50 38 15 12 15 15 14 8 7 5 15 359 341 332 340 334 321 312 305 306 303 298 291 286 280 277 279 270 265 260 263
nan nan nan 99 164 137 136 119 nan 90 93 75 83 82 79 nan 57 50 39 29 22 17 15 15 7 9 6 1 342 314 310 289 301 310 317 322 328 317 309 295 289 284 277 269 271 275 273 267 266
nan nan nan 124 157 136 142 nan nan nan 98 57 65 70 77 77 70 58 41 29 21 15 7 5 3 8 6 352 335 340 338 330 327 319 306 310 316 314 313 295 286 286 279 280 279 274 271 263 267
nan nan nan 231 243 190 nan 187 129 nan nan 93 82 63 59 52 49 48 39 33 13 360 3 2 4 360 357 351 350 343 337 322 305 299 298 307 299 303 312 304 297 299 274 278 282 279 275 265 273
nan nan nan 218 248 nan nan 227 nan nan 60 111 113 81 69 70 26 31 14 353 354 349 355 356 357 356 350 349 347 347 341 324 306 300 295 287 289 291 288 278 277 274 281 275 281 282 276 268 271
nan nan nan nan nan nan nan 259 90 nan nan 79 65 121 123 48 330 321 336 332 334 339 339 345 349 356 343 343 345 348 339 325 321 309 302 292 280 280 279 288 269 278 280 291 273 275 264 265 262
nan nan nan nan nan nan nan nan nan nan 42 8 69 164 nan 170 233 272 298 314 329 342 340 337 337 336 332 335 341 336 331 323 312 311 305 291 281 273 275 281 286 269 271 281 265 264 264 259 nan
nan nan nan nan nan nan nan nan nan nan nan 309 336 348 nan 351 291 286 300 321 329 329 331 331 329 331 334 336 334 338 333 323 323 313 nan 296 289 278 277 272 268 269 274 260 270 269 265 nan nan
nan nan nan nan nan nan nan nan nan nan 323 318 331 348 nan 321 319 311 308 310 312 318 318 320 322 328 332 333 333 336 333 329 322 321 320 307 294 288 285 277 268 268 252 243 252 257 nan 266 nan
nan nan nan nan nan nan nan nan nan nan nan 334 nan nan nan 325 325 320 311 308 307 310 312 313 320 322 324 325 327 331 330 326 322 325 318 308 295 290 285 274 267 268 245 252 nan nan nan nan nan
nan nan nan nan nan nan nan nan nan nan nan nan nan nan nan 324 325 314 308 302 304 305 308 312 315 316 319 318 324 329 331 328 329 328 328 320 314 313 306 288 nan nan nan 233 nan nan nan nan nan